SCP
0 0 0 0 0 0 0 0 0 0 0 0 0 0 0 0 0 0 0 0 0 0 0 0 0 0 0 0 0 0 0 0 0 0 0 0 0 0 0 0 0 0 0
0 0 0 0 0 0 0 0 0 0 0 0 0 0 0 0 0 0 0 0 0 0 0 0 0 0 0 0 0 0 0 0 0 0 0 0 0 0 0 0 0 0 0
0 0 0 0 0 0 0 0 0 0 0 0 0 0 0 0 0 0 0 0 0 0 0 0 0 0 0 0 0 0 0 0 0 0 0 0 0 0 0 0 0 0 0
0 0 0 0 0 0 0 0 0 0 0 0 0 0 0 0 0 0 0 0 0 0 0 0 0 0 0 0 0 0 0 0 0 0 0 0 0 0 0 0 0 0 0
0 0 0 0 0 0 0 0 0 0 0 0 0 0 0 0 0 0 0 0 0 0 0 0 0 0 0 0 0 0 0 0 0 0 0 0 0 0 0 0 0 0 0
0 0 0 0 0 0 0 0 0 0 0 0 0 0 0 0 0 0 0 0 0 0 0 0 0 0 0 0 0 0 0 0 0 0 0 0 0 0 0 0 0 0 0
0 0 0 0 0 0 0 0 0 0 0 0 0 0 0 0 0 0 0 0 0 0 0 0 0 0 0 0 0 0 0 0 0 0 0 0 0 0 0 0 0 0 0
0 0 0 0 0 0 0 0 0 0 0 0 0 0 0 0 0 0 0 0 0 0 0 0 0 0 0 0 0 0 0 0 0 0 0 0 0 0 0 0 0 0 0
0 0 0 0 0 0 0 0 0 0 0 0 0 0 0 0 0 0 0 0 0 0 0 0 0 0 0 0 0 0 0 0 0 0 0 0 0 0 0 0 0 0 0
0 0 0 0 0 0 0 0 0 0 0 0 0 0 0 0 0 0 0 0 0 0 0 0 0 0 0 0 0 0 0 0 0 0 0 0 0 0 0 0 0 0 0
0 0 0 0 0 0 0 0 0 0 0 0 0 0 0 0 0 0 0 0 0 0 0 0 0 0 0 0 0 0 0 0 0 0 0 0 0 0 0 0 0 0 0
0 0 0 0 0 0 0 0 0 0 0 0 0 0 0 0 0 0 0 0 0 0 0 0 0 0 0 0 0 0 0 0 0 0 0 0 0 0 0 0 0 0 0
0 0 0 0 0 0 0 0 0 0 0 0 0 0 0 0 0 0 0 0 0 0 0 0 0 0 0 0 0 0 0 0 0 0 0 0 0 0 0 0 0 0 0
0 0 0 0 0 0 0 0 0 0 0 0 0 0 0 0 0 0 0 0 0 0 0 0 0 0 0 0 0 0 0 0 0 0 0 0 0 0 0 0 0 0 0
0 0 0 0 0 0 0 0 0 0 0 0 0 0 0 0 0 0 0 0 0 0 0 0 0 0 0 0 0 0 0 0 0 0 0 0 0 0 0 0 0 0 0
0 0 0 0 0 0 0 0 0 0 0 0 0 0 0 0 0 0 0 0 0 0 0 0 0 0 0 0 0 0 0 0 0 0 0 0 0 0 0 0 0 0 0
-0 -0 0 0 0 0 0 0 0 0 0 0 0 0 0 0 0 0 0 0 0 0 0 0 0 0 0 0 0 0 0 0 0 0 0 0 0 0 0 0 0 0 0
0 0 0 -0 -0 -0 0 0 0 0 0 0 0 0 0 0 0 0 0 0 0 0 0 0 0 0 0 0 0 0 0 0 0 0 0 0 0 0 0 0 0 0 0
0 0 0 0 0 -0 -0 0 0 0 0 0 0 0 0 0 0 0 0 0 0 0 0 0 0 0 0 0 0 0 0 0 0 0 0 0 0 0 0 0 0 0 0
-0 -0 0 0 0 0 0 0 0 0 0 0 0 0 0 0 0 0 0 0 0 0 0 0 0 0 0 0 0 0 0 0 0 0 0 0 0 0 0 0 0 0 0
-0 -0 0 0 0 0 0 0 0 0 0 0 0 0 0 0 0 0 0 0 0 0 0 0 0 0 0 0 0 0 0 0 0 0 0 0 0 0 0 0 0 0 0
-0 0 0 0 0 0 0 0 0 0 0 0 0 0 0 0 0 0 0 0 0 0 0 0 0 0 0 0 0 0 0 0 0 0 0 0 0 0 0 0 0 0 0
-0 -0 -0 -0 0 0 0 0 0 0 0 0 0 0 0 0 0 0 0 0 0 0 0 0 0 0 0 0 0 0 0 0 0 0 0 0 0 0 0 0 0 0 0
-0 -0 -0 -0 0 0 0 0 0 0 0 0 0 0 0 0 0 0 0 0 0 0 0 0 0 0 0 0 0 0 0 0 0 0 0 0 0 0 0 0 0 0 0
0 0 0 0 0 0 -0 0 0 0 0 0 0 0 0 0 0 0 0 0 0 0 0 0 0 0 0 0 0 0 0 0 0 0 0 0 0 0 0 0 0 0 0
0 0 0 0 0 0 -0 -0 -0 0 0 0 0 0 0 0 0 0 0 0 0 0 0 0 0 0 0 0 0 0 0 0 0 0 0 0 0 0 0 0 0 0 0
Wind_Speed_500mb
60 55 55 53 53 50 50 43 39 35 32 28 25 22 20 18 17 18 18 18 18 19 19 19 17 17 13 7 14 22 27 23 20 17 18 20 18 17 16 17 20 25 28
65 62 60 59 57 55 52 48 44 41 37 32 29 25 22 20 19 19 19 18 19 20 20 16 12 5 21 28 25 19 28 21 19 17 12 12 11 11 12 11 12 12 17
70 67 66 65 61 60 57 54 50 47 42 37 34 30 27 24 22 20 20 20 20 21 22 17 16 17 25 23 23 12 20 16 10 8 6 7 8 12 10 11 12 14 16
74 74 71 68 66 65 62 60 56 51 46 42 39 35 32 28 26 24 23 22 21 21 25 28 32 28 31 34 13 18 17 15 13 13 11 11 15 16 14 13 13 13 14
76 80 78 74 72 71 69 67 64 58 55 50 45 41 37 33 31 28 26 26 26 26 28 28 28 38 40 31 19 18 28 19 18 19 18 21 21 18 19 18 17 17 19
77 80 82 80 79 76 75 73 69 65 61 55 50 47 44 41 37 34 32 32 30 31 29 31 35 40 33 30 26 27 27 26 25 23 27 25 23 21 21 21 21 21 22
78 80 86 86 86 82 79 77 74 70 65 59 52 47 44 45 40 40 38 38 36 35 34 34 37 36 36 37 32 31 31 32 31 29 28 27 25 24 24 23 22 22 22
82 82 84 89 91 85 84 83 81 79 71 68 59 43 27 41 48 46 46 45 42 40 38 39 42 40 38 37 36 36 40 36 35 33 28 26 24 23 22 24 24 24 24
80 86 85 88 93 91 89 88 88 87 82 78 71 43 20 23 32 47 54 50 46 44 45 46 43 40 38 40 41 41 41 38 35 31 27 25 24 25 26 27 27 28 28
65 76 85 90 95 96 95 96 94 92 88 88 77 79 61 28 20 20 42 51 52 51 51 50 48 44 42 41 42 43 37 35 33 29 27 25 26 28 30 31 31 31 31
48 51 67 81 93 101 100 101 101 100 100 96 94 87 83 63 42 28 26 40 53 57 58 57 56 51 47 44 45 44 37 37 32 28 28 29 30 31 32 33 33 32 31
46 45 50 62 76 94 101 103 104 105 103 103 102 98 96 93 87 65 48 39 48 55 64 63 64 59 53 49 45 44 39 38 37 33 32 33 33 34 34 33 33 33 32
38 39 42 51 57 71 89 100 105 108 108 108 108 106 103 99 91 84 69 53 44 48 53 68 71 66 61 55 52 45 41 41 40 36 34 33 32 32 32 33 33 33 30
35 41 44 43 50 55 66 82 100 106 109 110 109 110 111 105 100 95 83 70 51 52 57 59 65 67 66 61 56 49 47 45 44 39 36 34 32 31 32 33 34 33 32
36 40 44 50 49 53 58 66 82 96 107 111 111 111 114 111 107 102 93 89 81 55 69 66 63 66 68 66 64 56 54 52 46 41 39 35 34 33 34 36 36 34 35
41 42 45 49 49 54 57 64 72 80 92 106 111 113 116 116 115 109 104 99 91 78 67 74 74 69 67 69 66 62 63 58 50 46 41 38 36 35 36 36 35 35 36
48 45 43 44 50 55 56 62 71 75 82 90 103 111 116 116 119 117 113 109 101 91 79 65 70 66 70 72 71 70 67 62 55 50 46 42 39 38 38 38 38 38 36
47 52 53 51 47 48 55 62 68 74 80 87 90 99 113 116 118 119 119 117 113 103 94 82 78 75 74 74 75 70 70 66 60 55 50 45 42 40 40 39 39 36 31
54 51 52 56 56 52 52 56 64 71 77 80 88 91 103 109 119 121 122 121 117 112 101 98 91 86 79 77 79 79 75 71 67 61 54 49 44 44 41 41 39 35 35
65 61 57 56 57 58 56 55 59 67 74 79 84 93 96 103 111 117 121 124 120 117 111 106 103 94 89 86 86 85 82 77 70 66 61 52 48 45 41 41 40 36 35
76 73 69 67 65 62 61 62 60 62 68 77 86 90 97 98 105 109 115 124 123 121 120 115 114 107 101 98 95 92 89 76 71 72 63 57 52 46 44 40 40 37 35
88 86 83 80 78 75 72 65 64 68 67 72 85 89 93 95 100 105 110 113 119 126 128 126 125 124 119 111 100 94 85 81 74 72 66 60 53 49 45 39 37 39 37
108 106 99 95 92 90 86 81 74 72 74 77 84 87 90 95 96 96 103 110 118 126 123 124 126 132 127 125 109 100 92 86 79 67 61 58 53 48 45 39 40 40 39
108 110 115 114 112 107 101 96 90 87 81 79 83 89 91 92 97 92 91 98 113 119 126 126 123 117 122 121 113 106 98 89 75 68 64 58 54 52 49 43 44 45 44
118 120 121 123 126 128 120 111 104 96 94 94 85 86 91 97 95 91 87 95 98 116 120 119 119 116 116 116 105 100 99 87 80 78 74 68 61 55 53 52 51 49 47
132 133 135 133 133 135 135 126 114 103 101 101 94 93 89 91 96 82 89 94 94 108 103 103 104 108 112 111 108 105 102 101 91 77 75 64 56 50 45 54 49 45 45
Wind_Direction_500mb
232 231 229 229 226 225 224 225 226 227 229 231 233 237 243 252 261 270 276 274 272 268 262 261 271 276 292 186 202 279 285 293 299 290 282 284 290 297 293 285 275 262 256
234 234 233 231 229 228 228 227 227 228 228 230 232 236 241 248 256 263 271 273 269 265 259 251 240 222 180 190 239 268 283 290 298 296 299 292 291 281 278 281 278 270 256
235 236 235 234 233 232 230 229 229 229 230 230 232 235 240 246 252 258 264 265 262 256 250 228 184 184 219 227 240 253 285 295 278 263 242 240 244 252 248 250 254 256 254
235 236 236 236 235 234 232 231 231 230 232 234 236 238 241 246 254 259 260 258 254 248 240 238 211 188 227 251 255 195 243 284 271 271 256 247 243 248 250 248 250 255 257
237 237 238 238 238 237 234 232 232 232 232 232 233 238 240 243 247 249 251 248 241 236 236 229 226 224 237 260 253 212 245 267 260 264 261 252 254 256 257 256 259 258 259
240 238 239 239 239 238 235 232 233 230 230 231 231 234 238 242 244 246 248 248 245 240 238 226 219 224 235 243 249 246 258 265 267 268 265 267 268 269 268 267 266 268 272
244 240 240 240 240 240 239 237 234 231 228 228 227 230 234 240 242 244 247 247 245 239 236 231 230 233 234 244 249 250 259 263 271 267 266 268 268 267 267 271 275 275 276
245 243 241 242 244 242 239 237 235 232 227 228 226 230 234 242 240 238 240 239 237 233 231 232 234 236 240 243 248 251 257 266 267 270 271 269 267 268 269 269 270 272 273
250 248 245 243 245 245 245 243 238 235 233 231 225 222 211 225 233 236 239 238 239 235 236 235 236 238 240 244 247 252 254 257 262 261 263 265 271 275 275 275 278 279 278
255 253 251 246 246 246 245 246 244 241 236 237 228 225 225 207 204 228 236 234 235 234 234 234 235 240 241 244 245 246 252 252 250 252 259 266 270 273 277 277 275 273 272
271 263 258 254 249 247 245 246 245 241 239 239 238 234 229 228 223 219 224 232 233 233 235 234 234 239 239 243 247 252 249 248 245 250 258 263 266 268 269 269 271 274 274
283 279 272 264 257 253 250 247 247 245 242 240 241 238 238 232 230 227 228 237 240 238 235 235 238 240 241 244 246 249 246 246 246 253 260 264 266 265 265 265 266 266 268
292 293 285 278 272 265 257 252 249 247 245 242 241 242 242 240 242 242 235 233 227 231 231 234 238 240 242 243 244 247 240 240 244 249 257 261 264 265 265 265 265 267 267
292 295 293 285 281 274 267 260 253 251 250 247 245 243 245 244 240 241 240 228 223 229 234 236 236 236 240 240 244 240 234 234 233 244 248 252 257 263 269 271 271 274 276
303 288 286 287 285 279 272 266 260 255 252 250 248 247 245 247 245 242 240 240 239 233 235 234 233 234 236 237 239 235 232 230 235 242 246 252 259 266 271 273 275 273 270
335 318 302 291 285 283 279 270 263 259 255 253 251 249 247 245 246 245 241 241 240 238 245 243 240 239 236 234 236 231 231 232 233 239 246 254 261 268 270 271 271 268 267
336 334 328 309 296 287 280 276 270 263 259 256 253 252 251 249 247 247 245 241 240 237 235 232 239 240 236 234 232 229 231 229 235 238 243 249 256 262 265 268 266 264 264
324 326 326 324 317 299 288 277 272 269 263 258 257 254 252 250 249 248 247 245 242 239 235 234 236 236 234 233 234 230 230 230 237 240 244 249 255 260 264 266 265 264 256
333 327 321 319 316 314 299 284 276 272 269 266 261 258 255 251 249 248 247 246 244 241 237 237 238 239 236 234 229 227 227 229 237 241 244 248 254 259 263 263 265 260 257
328 326 324 322 319 313 305 299 287 278 272 268 263 259 257 254 252 250 248 248 246 243 238 235 237 238 238 235 231 231 226 226 234 238 241 245 250 255 257 259 261 258 258
320 321 320 317 317 317 314 309 299 288 280 275 267 261 258 256 256 253 251 249 246 244 240 236 236 235 234 231 233 232 230 229 230 234 237 238 243 248 252 251 257 254 256
313 314 315 315 313 311 313 314 307 296 284 276 273 267 261 259 256 256 255 252 250 248 242 238 236 237 237 236 236 237 235 228 222 229 232 237 241 245 245 250 251 248 250
308 309 308 308 307 307 308 309 308 301 291 283 273 268 265 262 258 254 255 254 253 253 250 248 243 241 239 238 238 237 234 236 233 230 229 233 236 240 246 249 248 244 247
299 299 301 302 301 299 300 302 304 303 296 284 279 273 266 263 259 256 254 253 251 249 247 244 245 246 246 247 242 243 242 236 230 227 224 223 232 237 244 247 252 248 249
293 292 293 293 294 294 294 295 297 297 295 292 284 276 270 265 258 255 252 252 249 252 248 244 244 244 243 244 241 236 228 225 223 225 227 229 230 237 245 251 249 252 255
290 289 286 285 285 286 288 289 290 290 290 289 286 280 275 269 265 242 240 246 242 245 235 236 230 233 235 238 237 235 233 225 222 222 226 225 228 234 247 250 251 253 254
Wind_Speed_850mb
60 55 55 53 53 50 50 43 39 35 32 28 25 22 20 18 17 18 18 18 18 19 19 19 17 17 13 7 14 22 27 23 20 17 18 20 18 17 16 17 20 25 28
65 62 60 59 57 55 52 48 44 41 37 32 29 25 22 20 19 19 19 18 19 20 20 16 12 5 21 28 25 19 28 21 19 17 12 12 11 11 12 11 12 12 17
70 67 66 65 61 60 57 54 50 47 42 37 34 30 27 24 22 20 20 20 20 21 22 17 16 17 25 23 23 12 20 16 10 8 6 7 8 12 10 11 12 14 16
74 74 71 68 66 65 62 60 56 51 46 42 39 35 32 28 26 24 23 22 21 21 25 28 32 28 31 34 13 18 17 15 13 13 11 11 15 16 14 13 13 13 14
76 80 78 74 72 71 69 67 64 58 55 50 45 41 37 33 31 28 26 26 26 26 28 28 28 38 40 31 19 18 28 19 18 19 18 21 21 18 19 18 17 17 19
77 80 82 80 79 76 75 73 69 65 61 55 50 47 44 41 37 34 32 32 30 31 29 31 35 40 33 30 26 27 27 26 25 23 27 25 23 21 21 21 21 21 22
78 80 86 86 86 82 79 77 74 70 65 59 52 47 44 45 40 40 38 38 36 35 34 34 37 36 36 37 32 31 31 32 31 29 28 27 25 24 24 23 22 22 22
82 82 84 89 91 85 84 83 81 79 71 68 59 43 27 41 48 46 46 45 42 40 38 39 42 40 38 37 36 36 40 36 35 33 28 26 24 23 22 24 24 24 24
80 86 85 88 93 91 89 88 88 87 82 78 71 43 20 23 32 47 54 50 46 44 45 46 43 40 38 40 41 41 41 38 35 31 27 25 24 25 26 27 27 28 28
65 76 85 90 95 96 95 96 94 92 88 88 77 79 61 28 20 20 42 51 52 51 51 50 48 44 42 41 42 43 37 35 33 29 27 25 26 28 30 31 31 31 31
48 51 67 81 93 101 100 101 101 100 100 96 94 87 83 63 42 28 26 40 53 57 58 57 56 51 47 44 45 44 37 37 32 28 28 29 30 31 32 33 33 32 31
46 45 50 62 76 94 101 103 104 105 103 103 102 98 96 93 87 65 48 39 48 55 64 63 64 59 53 49 45 44 39 38 37 33 32 33 33 34 34 33 33 33 32
38 39 42 51 57 71 89 100 105 108 108 108 108 106 103 99 91 84 69 53 44 48 53 68 71 66 61 55 52 45 41 41 40 36 34 33 32 32 32 33 33 33 30
35 41 44 43 50 55 66 82 100 106 109 110 109 110 111 105 100 95 83 70 51 52 57 59 65 67 66 61 56 49 47 45 44 39 36 34 32 31 32 33 34 33 32
36 40 44 50 49 53 58 66 82 96 107 111 111 111 114 111 107 102 93 89 81 55 69 66 63 66 68 66 64 56 54 52 46 41 39 35 34 33 34 36 36 34 35
41 42 45 49 49 54 57 64 72 80 92 106 111 113 116 116 115 109 104 99 91 78 67 74 74 69 67 69 66 62 63 58 50 46 41 38 36 35 36 36 35 35 36
48 45 43 44 50 55 56 62 71 75 82 90 103 111 116 116 119 117 113 109 101 91 79 65 70 66 70 72 71 70 67 62 55 50 46 42 39 38 38 38 38 38 36
47 52 53 51 47 48 55 62 68 74 80 87 90 99 113 116 118 119 119 117 113 103 94 82 78 75 74 74 75 70 70 66 60 55 50 45 42 40 40 39 39 36 31
54 51 52 56 56 52 52 56 64 71 77 80 88 91 103 109 119 121 122 121 117 112 101 98 91 86 79 77 79 79 75 71 67 61 54 49 44 44 41 41 39 35 35
65 61 57 56 57 58 56 55 59 67 74 79 84 93 96 103 111 117 121 124 120 117 111 106 103 94 89 86 86 85 82 77 70 66 61 52 48 45 41 41 40 36 35
76 73 69 67 65 62 61 62 60 62 68 77 86 90 97 98 105 109 115 124 123 121 120 115 114 107 101 98 95 92 89 76 71 72 63 57 52 46 44 40 40 37 35
88 86 83 80 78 75 72 65 64 68 67 72 85 89 93 95 100 105 110 113 119 126 128 126 125 124 119 111 100 94 85 81 74 72 66 60 53 49 45 39 37 39 37
108 106 99 95 92 90 86 81 74 72 74 77 84 87 90 95 96 96 103 110 118 126 123 124 126 132 127 125 109 100 92 86 79 67 61 58 53 48 45 39 40 40 39
108 110 115 114 112 107 101 96 90 87 81 79 83 89 91 92 97 92 91 98 113 119 126 126 123 117 122 121 113 106 98 89 75 68 64 58 54 52 49 43 44 45 44
118 120 121 123 126 128 120 111 104 96 94 94 85 86 91 97 95 91 87 95 98 116 120 119 119 116 116 116 105 100 99 87 80 78 74 68 61 55 53 52 51 49 47
132 133 135 133 133 135 135 126 114 103 101 101 94 93 89 91 96 82 89 94 94 108 103 103 104 108 112 111 108 105 102 101 91 77 75 64 56 50 45 54 49 45 45
Wind_Direction_850mb
232 231 229 229 226 225 224 225 226 227 229 231 233 237 243 252 261 270 276 274 272 268 262 261 271 276 292 186 202 279 285 293 299 290 282 284 290 297 293 285 275 262 256
234 234 233 231 229 228 228 227 227 228 228 230 232 236 241 248 256 263 271 273 269 265 259 251 240 222 180 190 239 268 283 290 298 296 299 292 291 281 278 281 278 270 256
235 236 235 234 233 232 230 229 229 229 230 230 232 235 240 246 252 258 264 265 262 256 250 228 184 184 219 227 240 253 285 295 278 263 242 240 244 252 248 250 254 256 254
235 236 236 236 235 234 232 231 231 230 232 234 236 238 241 246 254 259 260 258 254 248 240 238 211 188 227 251 255 195 243 284 271 271 256 247 243 248 250 248 250 255 257
237 237 238 238 238 237 234 232 232 232 232 232 233 238 240 243 247 249 251 248 241 236 236 229 226 224 237 260 253 212 245 267 260 264 261 252 254 256 257 256 259 258 259
240 238 239 239 239 238 235 232 233 230 230 231 231 234 238 242 244 246 248 248 245 240 238 226 219 224 235 243 249 246 258 265 267 268 265 267 268 269 268 267 266 268 272
244 240 240 240 240 240 239 237 234 231 228 228 227 230 234 240 242 244 247 247 245 239 236 231 230 233 234 244 249 250 259 263 271 267 266 268 268 267 267 271 275 275 276
245 243 241 242 244 242 239 237 235 232 227 228 226 230 234 242 240 238 240 239 237 233 231 232 234 236 240 243 248 251 257 266 267 270 271 269 267 268 269 269 270 272 273
250 248 245 243 245 245 245 243 238 235 233 231 225 222 211 225 233 236 239 238 239 235 236 235 236 238 240 244 247 252 254 257 262 261 263 265 271 275 275 275 278 279 278
255 253 251 246 246 246 245 246 244 241 236 237 228 225 225 207 204 228 236 234 235 234 234 234 235 240 241 244 245 246 252 252 250 252 259 266 270 273 277 277 275 273 272
271 263 258 254 249 247 245 246 245 241 239 239 238 234 229 228 223 219 224 232 233 233 235 234 234 239 239 243 247 252 249 248 245 250 258 263 266 268 269 269 271 274 274
283 279 272 264 257 253 250 247 247 245 242 240 241 238 238 232 230 227 228 237 240 238 235 235 238 240 241 244 246 249 246 246 246 253 260 264 266 265 265 265 266 266 268
292 293 285 278 272 265 257 252 249 247 245 242 241 242 242 240 242 242 235 233 227 231 231 234 238 240 242 243 244 247 240 240 244 249 257 261 264 265 265 265 265 267 267
292 295 293 285 281 274 267 260 253 251 250 247 245 243 245 244 240 241 240 228 223 229 234 236 236 236 240 240 244 240 234 234 233 244 248 252 257 263 269 271 271 274 276
303 288 286 287 285 279 272 266 260 255 252 250 248 247 245 247 245 242 240 240 239 233 235 234 233 234 236 237 239 235 232 230 235 242 246 252 259 266 271 273 275 273 270
335 318 302 291 285 283 279 270 263 259 255 253 251 249 247 245 246 245 241 241 240 238 245 243 240 239 236 234 236 231 231 232 233 239 246 254 261 268 270 271 271 268 267
336 334 328 309 296 287 280 276 270 263 259 256 253 252 251 249 247 247 245 241 240 237 235 232 239 240 236 234 232 229 231 229 235 238 243 249 256 262 265 268 266 264 264
324 326 326 324 317 299 288 277 272 269 263 258 257 254 252 250 249 248 247 245 242 239 235 234 236 236 234 233 234 230 230 230 237 240 244 249 255 260 264 266 265 264 256
333 327 321 319 316 314 299 284 276 272 269 266 261 258 255 251 249 248 247 246 244 241 237 237 238 239 236 234 229 227 227 229 237 241 244 248 254 259 263 263 265 260 257
328 326 324 322 319 313 305 299 287 278 272 268 263 259 257 254 252 250 248 248 246 243 238 235 237 238 238 235 231 231 226 226 234 238 241 245 250 255 257 259 261 258 258
320 321 320 317 317 317 314 309 299 288 280 275 267 261 258 256 256 253 251 249 246 244 240 236 236 235 234 231 233 232 230 229 230 234 237 238 243 248 252 251 257 254 256
313 314 315 315 313 311 313 314 307 296 284 276 273 267 261 259 256 256 255 252 250 248 242 238 236 237 237 236 236 237 235 228 222 229 232 237 241 245 245 250 251 248 250
308 309 308 308 307 307 308 309 308 301 291 283 273 268 265 262 258 254 255 254 253 253 250 248 243 241 239 238 238 237 234 236 233 230 229 233 236 240 246 249 248 244 247
299 299 301 302 301 299 300 302 304 303 296 284 279 273 266 263 259 256 254 253 251 249 247 244 245 246 246 247 242 243 242 236 230 227 224 223 232 237 244 247 252 248 249
293 292 293 293 294 294 294 295 297 297 295 292 284 276 270 265 258 255 252 252 249 252 248 244 244 244 243 244 241 236 228 225 223 225 227 229 230 237 245 251 249 252 255
290 289 286 285 285 286 288 289 290 290 290 289 286 280 275 269 265 242 240 246 242 245 235 236 230 233 235 238 237 235 233 225 222 222 226 225 228 234 247 250 251 253 254